• In Hungary
  • List of Countries
  • For 7 days
  • Water Temperature
  • Satellite Maps
  • Weather Map
  • News
  • Weather Widgets
  • user-avatar
    Login

    Hourly Weather Kuzhnik

    Today, 19 July, Thursday

    Time Temperature Precipitation Wind Pressure Humidity
    00:00 +18°C° 0 mm 2 mps 655 mmHg 52%
    01:00 +18°C° 0 mm 2 mps 655 mmHg 52%
    02:00 +18°C° 0 mm 2 mps 655 mmHg 51%
    03:00 +18°C° 0 mm 2 mps 655 mmHg 51%
    04:00 +19°C° 0 mm 2 mps 655 mmHg 52%
    05:00 +19°C° 0 mm 2 mps 655 mmHg 53%
    06:00 +20°C° 0 mm 2 mps 655 mmHg 54%
    07:00 +23°C° 0 mm 2 mps 655 mmHg 51%
    08:00 +25°C° 0 mm 2 mps 656 mmHg 47%
    09:00 +27°C° 0 mm 2 mps 656 mmHg 44%
    10:00 +28°C° 0 mm 2 mps 656 mmHg 44%
    11:00 +29°C° 0 mm 3 mps 655 mmHg 44%
    12:00 +30°C° 0 mm 3 mps 655 mmHg 44%
    13:00 +30°C° 0 mm 3 mps 655 mmHg 45%
    14:00 +30°C° 0 mm 3 mps 655 mmHg 46%
    15:00 +30°C° 0 mm 3 mps 655 mmHg 47%
    16:00 +29°C° 0 mm 2 mps 655 mmHg 52%
    17:00 +28°C° 0 mm 2 mps 655 mmHg 57%
    18:00 +27°C° 0 mm 2 mps 654 mmHg 62%
    19:00 +25°C° 0 mm 2 mps 654 mmHg 66%
    20:00 +23°C° 0 mm 2 mps 654 mmHg 69%
    21:00 +20°C° 0 mm 2 mps 654 mmHg 73%
    22:00 +20°C° 0 mm 2 mps 654 mmHg 71%
    23:00 +20°C° 0 mm 2 mps 654 mmHg 69%

    Tomorrow, 20 July, Friday

    Time Temperature Precipitation Wind Pressure Humidity
    00:00 +20°C° 0 mm 2 mps 654 mmHg 67%
    01:00 +20°C° 0 mm 2 mps 654 mmHg 65%
    02:00 +20°C° 0 mm 2 mps 654 mmHg 63%
    03:00 +19°C° 0 mm 2 mps 654 mmHg 61%
    04:00 +20°C° 0 mm 2 mps 655 mmHg 60%
    05:00 +21°C° 0 mm 2 mps 655 mmHg 59%
    06:00 +23°C° 0 mm 2 mps 655 mmHg 59%
    07:00 +25°C° 0 mm 2 mps 656 mmHg 55%
    08:00 +26°C° 0 mm 3 mps 656 mmHg 52%
    09:00 +28°C° 0 mm 3 mps 656 mmHg 48%
    10:00 +28°C° 0 mm 3 mps 656 mmHg 48%
    11:00 +29°C° 0 mm 4 mps 657 mmHg 48%
    12:00 +30°C° 0 mm 4 mps 657 mmHg 47%
    13:00 +29°C° 0.1 mm 4 mps 656 mmHg 49%
    14:00 +29°C° 0.1 mm 4 mps 656 mmHg 51%
    15:00 +29°C° 0.1 mm 4 mps 656 mmHg 53%
    16:00 +28°C° 0 mm 3 mps 656 mmHg 57%
    17:00 +26°C° 0 mm 3 mps 655 mmHg 61%
    18:00 +25°C° 0 mm 2 mps 655 mmHg 66%
    19:00 +24°C° 0 mm 2 mps 655 mmHg 70%
    20:00 +21°C° 0 mm 2 mps 655 mmHg 75%
    21:00 +21°C° 0 mm 1 mps 655 mmHg 79%
    22:00 +20°C° 0 mm 2 mps 655 mmHg 77%
    23:00 +20°C° 0 mm 2 mps 655 mmHg 76%

    Day after tomorrow, 21 July, Saturday

    Time Temperature Precipitation Wind Pressure Humidity
    00:00 +20°C° 0 mm 2 mps 655 mmHg 74%
    01:00 +19°C° 0 mm 2 mps 655 mmHg 73%
    02:00 +19°C° 0 mm 2 mps 655 mmHg 71%
    03:00 +19°C° 0 mm 2 mps 655 mmHg 70%
    04:00 +20°C° 0 mm 2 mps 656 mmHg 68%
    05:00 +21°C° 0 mm 2 mps 656 mmHg 66%
    06:00 +23°C° 0 mm 2 mps 656 mmHg 64%
    07:00 +24°C° 0 mm 2 mps 657 mmHg 59%
    08:00 +26°C° 0 mm 3 mps 657 mmHg 53%
    09:00 +28°C° 0 mm 3 mps 657 mmHg 48%
    10:00 +28°C° 0.1 mm 4 mps 658 mmHg 47%
    11:00 +29°C° 0.1 mm 4 mps 658 mmHg 46%
    12:00 +29°C° 0.1 mm 4 mps 658 mmHg 46%
    13:00 +29°C° 0.1 mm 4 mps 657 mmHg 46%
    14:00 +29°C° 0.1 mm 4 mps 657 mmHg 47%
    15:00 +28°C° 0.1 mm 4 mps 657 mmHg 48%
    16:00 +27°C° 0 mm 3 mps 657 mmHg 51%
    17:00 +27°C° 0 mm 3 mps 657 mmHg 54%
    18:00 +26°C° 0 mm 2 mps 657 mmHg 57%
    19:00 +24°C° 0 mm 2 mps 657 mmHg 63%
    20:00 +21°C° 0 mm 2 mps 657 mmHg 68%
    21:00 +20°C° 0 mm 2 mps 657 mmHg 73%
    22:00 +20°C° 0 mm 2 mps 657 mmHg 73%
    23:00 +20°C° 0 mm 2 mps 657 mmHg 72%

    22 July, Sunday

    Time Temperature Precipitation Wind Pressure Humidity
    00:00 +20°C° 0 mm 2 mps 657 mmHg 72%
    01:00 +19°C° 0 mm 2 mps 656 mmHg 71%
    02:00 +19°C° 0 mm 2 mps 656 mmHg 70%
    03:00 +19°C° 0 mm 2 mps 656 mmHg 69%
    04:00 +20°C° 0 mm 2 mps 657 mmHg 68%
    05:00 +21°C° 0 mm 2 mps 657 mmHg 66%
    06:00 +21°C° 0 mm 2 mps 657 mmHg 65%
    07:00 +24°C° 0 mm 2 mps 658 mmHg 60%
    08:00 +25°C° 0 mm 3 mps 658 mmHg 56%
    09:00 +27°C° 0 mm 3 mps 658 mmHg 51%
    10:00 +27°C° 0.2 mm 3 mps 658 mmHg 50%
    11:00 +28°C° 0.2 mm 4 mps 658 mmHg 49%
    12:00 +28°C° 0.2 mm 4 mps 658 mmHg 48%
    13:00 +28°C° 0.2 mm 4 mps 658 mmHg 49%
    14:00 +28°C° 0.2 mm 3 mps 657 mmHg 49%
    15:00 +28°C° 0.2 mm 3 mps 657 mmHg 50%
    16:00 +27°C° 0.1 mm 3 mps 657 mmHg 52%
    17:00 +26°C° 0.1 mm 2 mps 657 mmHg 55%
    18:00 +26°C° 0.1 mm 2 mps 656 mmHg 58%
    19:00 +24°C° 0 mm 2 mps 656 mmHg 63%
    20:00 +22°C° 0 mm 1 mps 656 mmHg 67%
    21:00 +21°C° 0 mm 1 mps 656 mmHg 72%
    22:00 +20°C° 0 mm 1 mps 656 mmHg 70%
    23:00 +19°C° 0 mm 2 mps 656 mmHg 68%

    23 July, Monday

    Time Temperature Precipitation Wind Pressure Humidity
    00:00 +19°C° 0 mm 2 mps 655 mmHg 66%
    01:00 +19°C° 0 mm 2 mps 655 mmHg 65%
    02:00 +19°C° 0 mm 2 mps 655 mmHg 63%
    03:00 +19°C° 0 mm 2 mps 655 mmHg 62%
    04:00 +20°C° 0 mm 2 mps 655 mmHg 61%
    05:00 +22°C° 0 mm 1 mps 656 mmHg 60%
    06:00 +22°C° 0 mm 1 mps 656 mmHg 59%
    07:00 +24°C° 0 mm 2 mps 656 mmHg 55%
    08:00 +26°C° 0 mm 2 mps 657 mmHg 50%
    09:00 +27°C° 0 mm 2 mps 657 mmHg 46%
    10:00 +28°C° 0.1 mm 3 mps 657 mmHg 45%
    11:00 +28°C° 0.1 mm 3 mps 657 mmHg 43%
    12:00 +29°C° 0.1 mm 3 mps 657 mmHg 42%
    13:00 +29°C° 0.1 mm 3 mps 656 mmHg 43%
    14:00 +29°C° 0.1 mm 3 mps 656 mmHg 43%
    15:00 +29°C° 0.1 mm 4 mps 655 mmHg 43%
    16:00 +28°C° 0 mm 3 mps 655 mmHg 47%
    17:00 +27°C° 0 mm 2 mps 655 mmHg 51%
    18:00 +26°C° 0 mm 2 mps 655 mmHg 54%
    19:00 +24°C° 0 mm 2 mps 655 mmHg 58%
    20:00 +23°C° 0 mm 2 mps 655 mmHg 61%
    21:00 +20°C° 0 mm 2 mps 655 mmHg 64%
    22:00 +20°C° 0 mm 2 mps 655 mmHg 62%
    23:00 +20°C° 0 mm 2 mps 655 mmHg 59%

    24 July, Tuesday

    Time Temperature Precipitation Wind Pressure Humidity
    00:00 +20°C° 0 mm 2 mps 655 mmHg 56%
    01:00 +20°C° 0 mm 2 mps 655 mmHg 55%
    02:00 +20°C° 0 mm 2 mps 655 mmHg 55%
    03:00 +20°C° 0 mm 2 mps 655 mmHg 54%
    04:00 +20°C° 0 mm 2 mps 655 mmHg 54%
    05:00 +21°C° 0 mm 2 mps 655 mmHg 55%
    06:00 +23°C° 0 mm 2 mps 656 mmHg 55%
    07:00 +25°C° 0 mm 2 mps 656 mmHg 51%
    08:00 +27°C° 0 mm 3 mps 657 mmHg 47%
    09:00 +28°C° 0 mm 3 mps 657 mmHg 43%
    10:00 +29°C° 0 mm 3 mps 657 mmHg 43%
    11:00 +30°C° 0 mm 4 mps 657 mmHg 43%
    12:00 +30°C° 0 mm 4 mps 657 mmHg 43%
    13:00 +30°C° 0 mm 4 mps 657 mmHg 44%
    14:00 +30°C° 0 mm 4 mps 657 mmHg 45%
    15:00 +30°C° 0 mm 4 mps 657 mmHg 46%
    16:00 +29°C° 0 mm 3 mps 657 mmHg 50%
    17:00 +28°C° 0 mm 3 mps 657 mmHg 54%
    18:00 +27°C° 0 mm 2 mps 657 mmHg 58%
    19:00 +25°C° 0 mm 2 mps 657 mmHg 62%
    20:00 +24°C° 0 mm 2 mps 657 mmHg 66%
    21:00 +21°C° 0 mm 2 mps 657 mmHg 70%
    22:00 +21°C° 0 mm 2 mps 657 mmHg 67%
    23:00 +21°C° 0 mm 2 mps 657 mmHg 65%
    Show more